OBJECT A, 62725

Orbit data source: Space-Track

You're viewing an Uncataloged Satellite

Recently launched and/or uncataloged satellites may have evolving metadata. Metadata may include but not limited to: Owner, Maufacturer, Bus, Motor, and Mission.

OBJECT A, 62725 is a Chinese satellite in SSO that was launched on Fri, 17 Jan 2025 UTC via a CHANG ZHENG 2D launch vehicle from the Jiuquan Satellite Launch Center, China (JSC). Unknown objects in Earth's orbit typically refer to objects detected orbiting the Earth but have not yet been identified or cataloged. These objects could be anything from previously untracked satellites, spent rocket stages, debris from satellite collisions, or even natural meteoroids temporarily captured by Earth's gravity.

Loading next visibility...
Identifier
62725, 2025-012A
Orbit
SSO
Country
Flag of CNCN / PRC
Related business
None
Manufacturer
Unknown
Mission
Operational Civil Imaging
Bus & Motor
Unknown
Mass
Unknown
Launch date (UTC)
2025-01-17 (1 year ago)
Launch vehicle
CHANG ZHENG 2D
Launch site
Jiuquan Satellite Launch Center, China (JSC)
Object type
Unknown
Shape & HBR
Box + 2 Pan, 2.0 m
Radar Cross Section
6.755 m², Large (>1 m²)

Expand to show TLE details & history
Last TLE update: 10 hours ago

TLE from 10 hours ago
0 OBJECT A
1 62725U 25012A   26170.30158772  .00005321  00000-0  26772-3 0  9999
2 62725  97.4222 242.7204 0004908 243.1116 116.9617 15.17630714 78517
Epoch: 2026-06-19T07:14Z
TLE epoch observation values (Epoch: 2026-06-19T07:14:17.179Z)
Latitude
0.00006°
Longitude
-133.38371°
Altitude
517.625 km
Speed
7.604 km/s
True Right ascension
16h 10m 52s
True Declination
0° 00' 00"
Sunlit
Object was in full shadow at epoch
Visualization orbit readout
Latitude
Unknown
Longitude
Unknown
Altitude
Unknown
Speed
Unknown
Apparent Right ascension
Unknown
Apparent Declination
Unknown
Sunlit
N/A
Visualization observer readout
Local Sidereal Time
03:53:58
Azimuth
Unknown
Elevation
Unknown
Doppler factor
Unknown
Orbital elements
Apogee altitude
513.354 km
Perigee altitude
506.592 km
Semi-major axis
6,888.11 km
Eccentricity
0.00049
Inclination
97.4222°
RAAN
242.7204°
Arg. of periapsis
243.1116°
True anomaly
117.01181°
Mean anomaly
116.9617°
Eccentric anomaly
116.98676°
Mean motion
3.79658 °/min
Orbital period
94.82 mins
BSTAR
0.00026772
Loading maneuver chart data...
Computing Atmospheric mass density...
Loading historical data...
Loading historical data...
Loading historical data...
Loading historical data...
Loading historical data...
Loading historical data...
Loading historical data...
Other satellites on launch #12 in the year 2025 (2025-01-17 UTC)

Documentation

Showing up to 5 results
|